Omak, WA

8:23 AM PDT on June 27, 2017 (GMT -0700)
Omak

Weather History for KOMK - March, 2012

Change the Weather History Date:

Tuesday, March 27, 2012

  Actual Average Record
Temperature  
Mean Temperature 36 °F 46 °F  
Max Temperature 44 °F 57 °F 70 °F (2015)
Min Temperature 27 °F 34 °F 18 °F (1935)
Degree Days  
Heating Degree Days 29 19  
Month to date heating degree days 695 654  
Since 1 July heating degree days 5765 5515  
Cooling Degree Days 0 0  
Month to date cooling degree days 0 0  
Year to date cooling degree days 0 0  
Moisture  
Dew Point 34 °F    
Average Humidity 88    
Maximum Humidity 100    
Minimum Humidity 76    
Precipitation  
Precipitation 0.30 in 0.04 in 0.59 in (1963)
Month to date precipitation 1.39 1.06  
Year to date precipitation 3.62 4.36  
Sea Level Pressure  
Sea Level Pressure 29.81 in    
Wind  
Wind Speed 4 mph (West)    
Max Wind Speed 15 mph    
Max Gust Speed 20 mph    
Visibility 7 miles    
Events Fog , Rain    
T = Trace of Precipitation, MM = Missing Value Source: NWS Daily Summary

Daily Weather History Graph

Daily Weather History Graph

Search for Another Location

Airport or City:

Trip Planner

Search our weather history database for the weather conditions in past years. The results will help you decide how hot, cold, wet, or windy it might be!

Date:

Astronomy

Mar. 27, 2012 Rise Set
Actual Time 6:45 AM PDT 7:22 PM PDT
Civil Twilight 6:13 AM PDT 7:53 PM PDT
Nautical Twilight 5:36 AM PDT 8:31 PM PDT
Astronomical Twilight 4:57 AM PDT 9:10 PM PDT
Moon 8:55 AM PDT No Moon Set
Length of Visible Light 13h 40m
Length of Day
12h 37m
Waxing Crescent, 23% of the Moon is Illuminated
Mar 27
Waxing Crescent
Mar 30
First Quarter
Apr 6
Full
Apr 13
Last Quarter
Apr 21
New

Hourly Weather History & Observations

Time (PDT) Temp. Windchill Dew Point Humidity Pressure Visibility Wind Dir Wind Speed Gust Speed Precip Events Conditions
12:53 AM 36.0 °F 32.1 °F 34.0 °F 93% 29.79 in 10.0 mi WNW 4.6 mph - N/A   Scattered Clouds
1:53 AM 34.0 °F - 30.9 °F 89% 29.82 in 10.0 mi Calm Calm - N/A   Clear
2:33 AM 30.2 °F - 28.4 °F 93% 29.80 in 1.5 mi Calm Calm - N/A   Clear
2:48 AM 30.2 °F - 28.4 °F 93% 29.81 in 0.8 mi Calm Calm - N/A   Mist
2:53 AM 28.9 °F 25.2 °F 28.0 °F 96% 29.84 in 0.2 mi SW 3.5 mph - N/A Fog Light Freezing Fog
3:11 AM 28.4 °F - 26.6 °F 93% 29.81 in 0.8 mi Calm Calm - N/A   Mist
3:14 AM 28.4 °F 24.6 °F 26.6 °F 93% 29.81 in 1.2 mi NW 3.5 mph - N/A   Partly Cloudy
3:22 AM 28.4 °F 23.3 °F 26.6 °F 93% 29.81 in 8.0 mi NW 4.6 mph - N/A   Partly Cloudy
3:53 AM 28.0 °F - 26.1 °F 92% 29.85 in 4.0 mi Calm Calm - N/A   Partly Cloudy
4:53 AM 27.0 °F - 25.0 °F 92% 29.85 in 1.2 mi Calm Calm - N/A   Clear
5:09 AM 28.4 °F - 26.6 °F 93% 29.82 in 0.8 mi Calm Calm - N/A   Clear
5:23 AM 28.4 °F - 26.6 °F 93% 29.82 in 0.2 mi Calm Calm - N/A Fog Light Freezing Fog
5:32 AM 26.6 °F - 26.6 °F 100% 29.82 in 0.5 mi Calm Calm - N/A Fog Light Freezing Fog
5:39 AM 28.4 °F - 26.6 °F 93% 29.82 in 1.2 mi Calm Calm - N/A   Overcast
5:43 AM 30.2 °F - 28.4 °F 93% 29.82 in 3.0 mi Calm Calm - N/A   Overcast
5:53 AM 30.0 °F - 28.9 °F 96% 29.85 in 7.0 mi Calm Calm - N/A   Overcast
6:53 AM 33.1 °F 30.0 °F 32.0 °F 96% 29.85 in 8.0 mi SW 3.5 mph - N/A   Overcast
7:53 AM 37.9 °F - 36.0 °F 93% 29.86 in 10.0 mi Calm Calm - N/A   Overcast
8:53 AM 39.0 °F 34.8 °F 35.1 °F 86% 29.87 in 10.0 mi South 5.8 mph - N/A   Overcast
9:53 AM 39.9 °F 36.7 °F 35.1 °F 83% 29.89 in 10.0 mi Variable 4.6 mph - N/A   Overcast
10:53 AM 43.0 °F 37.7 °F 35.1 °F 74% 29.89 in 10.0 mi SSW 9.2 mph - 0.00 in Rain Light Rain
11:11 AM 42.8 °F 37.5 °F 35.6 °F 76% 29.86 in 10.0 mi SSW 9.2 mph - 0.00 in Rain Light Rain
11:34 AM 42.8 °F 38.0 °F 37.4 °F 81% 29.86 in 10.0 mi SSW 8.1 mph - 0.01 in Rain Light Rain
11:53 AM 43.0 °F 37.7 °F 36.0 °F 76% 29.89 in 10.0 mi South 9.2 mph - 0.01 in Rain Light Rain
12:14 PM 42.8 °F 35.4 °F 35.6 °F 76% 29.85 in 10.0 mi South 15.0 mph - 0.00 in Rain Light Rain
12:53 PM 43.0 °F 37.7 °F 37.0 °F 80% 29.88 in 10.0 mi SSW 9.2 mph - 0.02 in Rain Light Rain
1:13 PM 42.8 °F 37.5 °F 37.4 °F 81% 29.84 in 10.0 mi SSW 9.2 mph - 0.00 in Rain Light Rain
1:53 PM 43.0 °F 37.7 °F 37.9 °F 82% 29.87 in 10.0 mi SW 9.2 mph - 0.01 in Rain Light Rain
2:24 PM 42.8 °F 38.6 °F 37.4 °F 81% 29.84 in 10.0 mi SW 6.9 mph - 0.01 in Rain Light Rain
2:53 PM 43.0 °F 39.5 °F 39.0 °F 86% 29.87 in 10.0 mi SW 5.8 mph - 0.01 in Rain Light Rain
3:39 PM 44.6 °F - 39.2 °F 81% 29.82 in 8.0 mi Calm Calm - 0.01 in Rain Light Rain
3:53 PM 43.0 °F - 39.0 °F 86% 29.86 in 10.0 mi Calm Calm - 0.01 in Rain Light Rain
4:02 PM 42.8 °F 41.1 °F 39.2 °F 87% 29.82 in 7.0 mi NNE 3.5 mph - 0.01 in Rain Light Rain
4:50 PM 42.8 °F - 39.2 °F 87% 29.80 in 10.0 mi Calm Calm - 0.04 in Rain Light Rain
4:53 PM 43.0 °F - 39.9 °F 89% 29.83 in 9.0 mi Calm Calm - 0.04 in Rain Light Rain
4:59 PM 42.8 °F - 39.2 °F 87% 29.80 in 7.0 mi Calm Calm - 0.00 in Rain Light Rain
5:53 PM 43.0 °F 41.3 °F 39.9 °F 89% 29.81 in 10.0 mi NNW 3.5 mph - 0.01 in Rain Light Rain
6:53 PM 42.1 °F 39.2 °F 39.9 °F 92% 29.79 in 10.0 mi North 4.6 mph - 0.01 in Rain Light Rain
7:45 PM 41.0 °F 37.1 °F 39.2 °F 93% 29.74 in 10.0 mi NNW 5.8 mph - 0.01 in Rain Light Rain
7:53 PM 41.0 °F 36.4 °F 39.0 °F 93% 29.77 in 10.0 mi NNW 6.9 mph - 0.01 in Rain Light Rain
8:53 PM 41.0 °F 38.0 °F 39.0 °F 93% 29.76 in 9.0 mi NW 4.6 mph - 0.03 in Rain Light Rain
9:05 PM 41.0 °F 38.0 °F 39.2 °F 93% 29.73 in 10.0 mi NW 4.6 mph - 0.01 in Rain Light Rain
9:44 PM 41.0 °F 38.0 °F 39.2 °F 93% 29.72 in - NNW 4.6 mph - 0.03 in Rain Light Rain
9:53 PM 41.0 °F 39.0 °F 39.0 °F 93% 29.74 in 10.0 mi NW 3.5 mph - 0.03 in Rain Light Rain
10:15 PM 39.2 °F 33.6 °F 37.4 °F 93% 29.71 in 10.0 mi NW 8.1 mph - 0.01 in Rain Light Rain
10:43 PM 41.0 °F 34.7 °F 37.4 °F 87% 29.70 in 10.0 mi NNW 10.4 mph - 0.02 in Rain Light Rain
10:53 PM 41.0 °F 35.2 °F 37.9 °F 89% 29.71 in 10.0 mi NNW 9.2 mph - 0.02 in Rain Light Rain
11:53 PM 39.9 °F 35.1 °F 37.9 °F 93% 29.69 in 9.0 mi NNW 6.9 mph - 0.03 in Rain Light Rain